Location: Chequamegon National Forest
(46.1070°N, 90.8420°W)
Time: 07:08:00
(UTC-05:00)

ISS - All Passes

Search period start: 23 August 2017 00:00
Search period end: 02 September 2017 00:00
Orbit: 401 x 408 km, 51.6° (Epoch: 23 August)

Date Brightness Start Highest point End Pass type
(mag) Time Alt. Az. Time Alt. Az. Time Alt. Az.
23 Aug - 09:59:20 10° SW 10:02:28 43° SE 10:05:37 10° ENE daylight
23 Aug - 11:35:49 10° W 11:38:58 43° NNW 11:42:08 10° ENE daylight
23 Aug - 13:13:00 10° WNW 13:15:57 30° N 13:18:54 10° ENE daylight
23 Aug - 14:49:35 10° WNW 14:52:50 61° NNE 14:56:04 10° ESE daylight
23 Aug - 16:26:24 10° W 16:29:07 24° SW 16:31:49 10° SSE daylight
24 Aug - 09:07:35 10° SSW 09:10:21 25° SE 09:13:08 10° E daylight
24 Aug - 10:43:23 10° WSW 10:46:39 60° NNW 10:49:55 10° ENE daylight
24 Aug - 12:20:35 10° WNW 12:23:32 30° N 12:26:29 10° ENE daylight
24 Aug - 13:57:21 10° WNW 14:00:31 43° NNE 14:03:40 10° E daylight
24 Aug - 15:33:53 10° WNW 15:37:00 41° SW 15:40:06 10° SE daylight
25 Aug - 08:16:21 10° S 08:18:18 15° SE 08:20:15 10° E daylight
25 Aug - 09:51:04 10° WSW 09:54:22 89° SSE 09:57:40 10° ENE daylight
25 Aug - 11:28:06 10° WNW 11:31:07 32° N 11:34:08 10° ENE daylight
25 Aug - 13:05:05 10° WNW 13:08:08 34° N 13:11:11 10° E daylight
25 Aug - 14:41:32 10° WNW 14:44:50 72° SSW 14:48:04 10° SE daylight
25 Aug - 16:19:36 10° WSW 16:20:46 12° SW 16:21:57 10° SSW daylight
26 Aug - 08:58:56 10° SW 09:02:08 53° SE 09:05:21 10° ENE daylight
26 Aug - 10:35:35 10° W 10:38:43 39° NNW 10:41:50 10° ENE daylight
26 Aug - 12:12:44 10° WNW 12:15:43 30° N 12:18:41 10° ENE daylight
26 Aug - 13:49:16 10° WNW 13:52:33 71° NNE 13:55:49 10° ESE daylight
26 Aug - 15:26:16 10° W 15:28:44 20° SW 15:31:13 10° S daylight
27 Aug - 08:07:02 10° SSW 08:09:58 30° SE 08:12:54 10° ENE daylight
27 Aug - 09:43:06 10° W 09:46:20 52° NNW 09:49:34 10° ENE daylight
27 Aug - 11:20:19 10° WNW 11:23:15 29° N 11:26:12 10° ENE daylight
27 Aug - 12:57:00 10° WNW 13:00:12 48° NNE 13:03:24 10° E daylight
27 Aug - 14:33:36 10° WNW 14:36:37 34° SW 14:39:37 10° SSE daylight
28 Aug - 07:15:32 10° S 07:17:51 18° SE 07:20:11 10° E daylight
28 Aug - 08:50:42 10° WSW 08:53:59 79° NNW 08:57:17 10° ENE daylight
28 Aug - 10:27:48 10° WNW 10:30:48 31° N 10:33:47 10° ENE daylight
28 Aug - 12:04:42 10° WNW 12:07:48 37° NNE 12:10:53 10° E daylight
28 Aug - 13:41:10 10° WNW 13:44:25 60° SSW 13:47:38 10° SE daylight
29 Aug - 06:25:24 10° SE 06:25:48 10° SE 06:26:12 10° SE daylight
29 Aug - 07:58:26 10° SW 08:01:42 64° SSE 08:04:58 10° ENE daylight
29 Aug - 09:35:15 10° W 09:38:21 36° NNW 09:41:26 10° ENE daylight
29 Aug - 11:12:21 10° WNW 11:15:21 31° N 11:18:20 10° ENE daylight
29 Aug - 12:48:50 10° WNW 12:52:08 83° NNE 12:55:24 10° ESE daylight
29 Aug - 14:26:03 10° W 14:28:14 17° SW 14:30:24 10° S daylight
30 Aug - 07:06:24 10° SSW 07:09:28 37° SE 07:12:32 10° ENE daylight
30 Aug - 08:42:43 10° W 08:45:54 46° NNW 08:49:06 10° ENE daylight
30 Aug - 10:19:54 10° WNW 10:22:52 29° N 10:25:49 10° ENE daylight
30 Aug - 11:56:31 10° WNW 11:59:46 55° NNE 12:03:00 10° E daylight
30 Aug - 13:33:14 10° W 13:36:07 28° SW 13:38:58 10° SSE daylight
31 Aug - 06:14:41 10° S 06:17:17 22° SE 06:19:53 10° E daylight
31 Aug - 07:50:14 10° WSW 07:53:31 68° NNW 07:56:48 10° ENE daylight
31 Aug - 09:27:23 10° WNW 09:30:21 30° N 09:33:20 10° ENE daylight
31 Aug - 11:04:12 10° WNW 11:07:21 40° NNE 11:10:28 10° E daylight
31 Aug - 12:40:42 10° WNW 12:43:54 49° SW 12:47:04 10° SE daylight
01 Sep - 05:23:41 10° SSE 05:25:10 13° SE 05:26:40 10° ESE visible
01 Sep - 06:57:53 10° SW 07:01:09 77° SSE 07:04:27 10° ENE daylight
01 Sep - 08:34:48 10° WNW 08:37:51 34° N 08:40:55 10° ENE daylight
01 Sep - 10:11:50 10° WNW 10:14:52 33° N 10:17:53 10° ENE daylight
01 Sep - 11:48:18 10° WNW 11:51:36 84° SSW 11:54:52 10° ESE daylight
01 Sep - 13:25:51 10° W 13:27:37 14° SW 13:29:23 10° SSW daylight
